User: anonymous   Login
Location: Theydon Bois
(51.6750°N, 0.1050°E)
Time: 12:16:34
(UTC+01:00)
Language:

CZ-3A R/B - Orbit

View from above orbital plane
View from above orbital plane
View from above satellite
View from above satellite

Ground track
Ground track

The orbit data is extracted from the following two-line orbital elements,

1 37385U 11013B   17290.43721015 -.00000066  00000-0  54994-2 0  9990
2 37385  55.3824 201.8924 6628814 150.8025 273.1105  2.63324833 61771
Epoch (UTC): 17 October 2017 10:29:34
Eccentricity: 0.6628814
inclination: 55.3824°
perigee height: 1089 km
apogee height: 30457 km
right ascension of ascending node: 201.8924°
argument of perigee: 150.8025°
revolutions per day: 2.63324833
mean anomaly at epoch: 273.1105°
orbit number at epoch: 6177

The dashed part of the orbit path shows where the satellite is in the earth's shadow,  

DLR